Weather observations for the past three days for
Auburn-Lewiston
Metric (Imperial)
Date Time (edt) Wind (kph) Vis. (km) Weather Sky Cond. Temperature (ºC) Relative Humidity Wind Chill (°C) Heat Index (°C) Pressure Precipitation (cm)
Air Dwpt 6 hour altimeter (cm) sea level (mb) 1 hr 3 hr 6 hr
Max. Min.
15 19:56 SE 9 16.09 Fair CLR 27.2 22.8 32.2 27.2 77% 30 75.62 1008.5
15 18:56 SE 6 16.09 Fair CLR 30.6 21.7 59% 34 75.59 1008.2
15 17:56 Calm 16.09 Fair CLR 31.7 21.1 53% 35 75.59 1008.1
15 16:56 Calm 16.09 Fair CLR 31.7 20.6 52% 34 75.59 1008.1
15 15:56 W 6 16.09 Partly Cloudy SCT055 31.7 20 50% 34 75.64 1008.8
15 14:56 SW 11 16.09 Partly Cloudy SCT050 31.7 20 50% 34 75.67 1009.1
15 13:56 SW 17 16.09 Fair CLR 31.7 20 31.7 21.1 50% 34 75.67 1009.2
15 12:56 SW 17 16.09 Fair CLR 31.1 20.6 54% 34 75.74 1009.9
15 11:56 S 11 16.09 Fair CLR 29.4 20.6 59% 32 75.77 1010.4
15 10:56 S 9 16.09 Fair CLR 28.3 20 61% 30 75.77 1010.6
15 09:56 Vrbl 6 16.09 Partly Cloudy SCT070 26.1 20 69% 27 75.79 1011.0
15 08:56 Calm 16.09 Mostly Cloudy BKN070 BKN085 23.9 20.6 82% 24 75.84 1011.6
15 07:56 Calm 16.09 Overcast BKN075 OVC110 21.1 20 21.1 16.7 93% 75.9 1012.1
15 06:56 Calm 16.09 Mostly Cloudy BKN085 20 19.4 96% 75.87 1012.0
15 05:56 Calm 16.09 A Few Clouds FEW100 18.3 17.8 97% 75.87 1011.9
15 04:56 Calm 14.48 Fair CLR 18.3 18.3 100% 75.84 1011.7
15 03:56 Calm 6.44 Fog/Mist CLR 17.8 17.8 100% 75.84 1011.6
15 02:56 Calm 16.09 Mostly Cloudy BKN065 18.9 18.3 96% 75.87 1011.8
15 01:56 Calm 16.09 Fair CLR 19.4 18.3 25.6 18.9 93% 75.9 1012.1
15 00:56 Calm 16.09 Fair CLR 20.6 18.9 90% 75.92 1012.6
14 23:56 Calm 12.87 Fair CLR 22.2 18.9 82% 75.95 1012.9
14 22:56 S 11 16.09 Fair CLR 22.8 18.9 79% 75.95 1012.8
14 21:56 S 7 16.09 Partly Cloudy SCT070 22.8 18.9 79% 75.97 1013.1
14 19:56 S 11 16.09 Fair CLR 25.6 20 31.1 25.6 71% 27 75.95 1012.8
14 18:56 SE 9 16.09 Fair CLR 27.8 20.6 65% 30 75.95 1012.8
14 17:56 S 9 16.09 Fair CLR 30 17.8 48% 31 75.92 1012.7
14 16:56 S 7 16.09 Fair CLR 30.6 18.3 48% 32 75.95 1012.9
14 15:56 NW 7 16.09 Fair CLR 30.6 16.7 43% 31 76 1013.6
14 14:56 Vrbl 11 16.09 Fair CLR 30.6 17.2 45% 31 76.05 1014.1
14 13:56 W 13 16.09 Fair CLR 30 18.3 30 22.8 49% 31 76.07 1014.6
14 12:56 SW 13 16.09 Fair CLR 29.4 19.4 55% 31 76.12 1015.2
14 11:56 W 13 16.09 Fair CLR 28.3 19.4 59% 30 76.17 1015.8
14 10:56 W 11 16.09 Fair CLR 27.8 18.9 58% 29 76.2 1016.2
14 09:56 W 17 16.09 Fair CLR 26.7 19.4 64% 28 76.23 1016.7
14 08:56 W 11 16.09 Fair CLR 25 18.9 69% 26 76.23 1016.7
14 07:56 Calm 16.09 Fair CLR 22.8 20 22.8 17.2 84% 76.25 1016.9
14 06:56 NW 9 16.09 Fair CLR 21.1 18.9 87% 76.25 1016.9
14 05:56 Calm 16.09 Fair CLR 17.2 16.7 97% 76.25 1016.8
14 04:56 NW 6 16.09 Fair CLR 20 18.3 90% 76.23 1016.6
14 03:56 Calm 16.09 Fair CLR 19.4 18.3 93% 76.2 1016.3
14 02:56 NW 6 16.09 Fair CLR 20 19.4 96% 76.2 1016.3
14 01:56 N 7 16.09 Fair CLR 20.6 20 22.2 20 96% 76.23 1016.8
14 00:56 N 9 16.09 Fair CLR 20.6 20 96% 76.28 1017.4
13 23:56 N 6 16.09 Fair CLR 20.6 20 96% 76.28 1017.5
13 22:56 NW 6 16.09 A Few Clouds FEW110 21.1 20.6 97% 76.28 1017.5
13 21:56 Calm 16.09 Fair CLR 21.1 20.6 97% 76.3 1017.6
13 20:56 Calm 16.09 Fair CLR 21.1 20.6 97% 76.3 1017.7
13 19:56 S 7 16.09 Partly Cloudy SCT110 22.2 21.1 30.6 22.2 94% 76.3 1017.6 0.1
13 18:56 S 17 16.09 Mostly Cloudy SCT065 BKN120 23.9 21.1 84% 24 76.3 1017.5
13 17:56 SE 11 16.09 A Few Clouds FEW120 22.2 20.6 91% 76.25 1017.2 0.03
13 16:56 W 15 16.09 Thunderstorm in Vicinity Rain SCT055 OVC075 23.9 21.1 84% 24 76.25 1017.1 0.08 0.08
13 15:56 S 13 16.09 A Few Clouds FEW033 30 22.2 63% 33 76.28 1017.2
13 14:56 SW 13 16.09 A Few Clouds FEW045 30 21.1 59% 33 76.3 1017.7
13 13:56 SW 11 16.09 Fair CLR 28.9 21.1 29.4 22.8 63% 31 76.35 1018.3
13 12:56 S 11 16.09 Partly Cloudy SCT035 28.3 21.1 65% 31 76.43 1019.2
13 11:56 S 11 16.09 A Few Clouds FEW031 28.3 21.1 65% 31 76.48 1020.1
13 10:56 Calm 16.09 Fair CLR 26.7 20.6 69% 28 76.5 1020.3
13 09:56 S 9 16.09 Partly Cloudy SCT020 25.6 20.6 74% 27 76.53 1020.5
13 08:56 SW 7 16.09 Mostly Cloudy BKN090 25 21.1 79% 26 76.56 1021.1
13 07:56 SW 6 16.09 A Few Clouds FEW090 22.8 21.7 22.8 21.1 94% 76.58 1021.3 0.18
13 06:56 Calm 16.09 Overcast BKN060 OVC100 22.2 21.1 94% 76.58 1021.4 0.03
13 05:56 Calm 16.09 Mostly Cloudy BKN048 BKN065 21.7 21.1 96% 76.56 1021.2 0.1
13 04:56 NW 7 16.09 Light Rain BKN045 OVC060 22.2 21.1 94% 76.58 1021.3 0.05 0.05
13 03:56 S 6 16.09 Overcast OVC065 22.2 21.1 94% 76.5 1020.4
13 02:56 Calm 16.09 Fair CLR 22.2 21.1 94% 76.5 1020.4
13 01:56 Calm 16.09 Mostly Cloudy BKN070 22.2 21.1 27.8 22.2 94% 76.53 1020.6
13 00:56 Calm 16.09 Overcast OVC060 23.3 21.7 91% 76.53 1020.8
12 23:56 NW 6 16.09 Fair CLR 25 21.7 82% 26 76.56 1021.1
12 22:56 Calm 16.09 Partly Cloudy SCT055 24.4 22.2 88% 25 76.56 1020.9
12 21:56 Calm 16.09 Mostly Cloudy BKN055 BKN065 25.6 22.2 82% 27 76.53 1020.7
12 20:56 S 7 16.09 Mostly Cloudy BKN060 26.1 22.2 79% 28 76.48 1020.1
Date Time (edt) Wind (kph) Vis. (km) Weather Sky Cond. Air Dwpt Max. Min. Relative Humidity Wind Chill (°C) Heat Index (°C) altimeter (cm) sea level (mb) 1 hr 3 hr 6 hr
6 hour
Temperature (ºC) Pressure Precipitation (cm)